McGuire AFB, NJ

6:36 PM EDT on April 23, 2017 (GMT -0400)
McGuire Air Force Base

Weather History for KWRI - May, 2013

Change the Weather History Date:

Tuesday, May 28, 2013

  Actual Average Record
Temperature  
Mean Temperature 57 °F -  
Max Temperature 64 °F 72 °F 91 °F (2016)
Min Temperature 50 °F 52 °F 42 °F (1997)
Degree Days  
Heating Degree Days 8    
Growing Degree Days 7 (Base 50)    
Moisture  
Dew Point 58 °F    
Average Humidity 91    
Maximum Humidity 100    
Minimum Humidity 64    
Precipitation  
Precipitation 0.13 in - - ()
Sea Level Pressure  
Sea Level Pressure 30.16 in    
Wind  
Wind Speed 4 mph (SE)    
Max Wind Speed 14 mph    
Max Gust Speed 18 mph    
Visibility 9 miles    
Events Rain    
Averages and records for this station are not official NWS values.
T = Trace of Precipitation, MM = Missing Value Source: NWS Daily Summary

Daily Weather History Graph

Daily Weather History Graph

Search for Another Location

Airport or City:

Trip Planner

Search our weather history database for the weather conditions in past years. The results will help you decide how hot, cold, wet, or windy it might be!

Date:

Astronomy

May. 28, 2013 Rise Set
Actual Time 5:33 AM EDT 8:18 PM EDT
Civil Twilight 5:01 AM EDT 8:50 PM EDT
Nautical Twilight 4:21 AM EDT 9:30 PM EDT
Astronomical Twilight 3:36 AM EDT 10:16 PM EDT
Moon 11:40 PM EDT (5/28) 9:18 AM EDT (5/28)
Length of Visible Light 15h 48m
Length of Day
14h 45m
Waning Gibbous, 83% of the Moon is Illuminated
May 28
Waning Gibbous
May 31
Last Quarter
Jun 8
New
Jun 16
First Quarter
Jun 23
Full

Hourly Weather History & Observations

Time (EDT) Temp. Dew Point Humidity Pressure Visibility Wind Dir Wind Speed Gust Speed Precip Events Conditions
12:58 AM 54.3 °F 46.4 °F 75% 30.21 in 10.0 mi SW 5.8 mph - N/A   Clear
1:58 AM 53.8 °F 46.9 °F 78% 30.21 in 10.0 mi Calm Calm - N/A   Clear
2:58 AM 52.0 °F 46.6 °F 82% 30.21 in 10.0 mi South 2.3 mph - N/A   Clear
3:58 AM 52.2 °F 46.6 °F 81% 30.20 in 10.0 mi South 2.3 mph - N/A   Clear
4:58 AM 50.0 °F 46.9 °F 89% 30.19 in 10.0 mi SSE 2.3 mph - N/A   Mostly Cloudy
5:58 AM 51.8 °F 48.2 °F 88% 30.19 in 10.0 mi SE 2.3 mph - N/A   Mostly Cloudy
6:58 AM 53.8 °F 50.7 °F 89% 30.21 in 10.0 mi Calm Calm - N/A   Mostly Cloudy
7:58 AM 58.6 °F 52.2 °F 79% 30.21 in 10.0 mi ESE 1.2 mph - N/A   Mostly Cloudy
8:58 AM 63.0 °F 50.5 °F 64% 30.21 in 10.0 mi SSE 4.6 mph - N/A   Scattered Clouds
9:16 AM 62.6 °F 51.8 °F 68% 30.21 in 10.0 mi South 4.6 mph - N/A Rain Light Rain
9:41 AM 64.4 °F 51.8 °F 64% 30.20 in 10.0 mi SSE 3.5 mph - N/A   Partly Cloudy
9:58 AM 64.2 °F 52.2 °F 65% 30.21 in 10.0 mi ESE 3.5 mph - 0.00 in   Partly Cloudy
10:05 AM 64.4 °F 53.6 °F 68% 30.20 in 10.0 mi Variable 4.6 mph - N/A Rain Light Rain
10:47 AM 62.6 °F 55.4 °F 77% 30.20 in 10.0 mi Variable 1.2 mph - N/A   Clear
10:58 AM 63.1 °F 54.5 °F 73% 30.22 in 10.0 mi SSE 4.6 mph - 0.00 in   Partly Cloudy
10:59 AM 62.6 °F 55.4 °F 77% 30.21 in 10.0 mi SE 4.6 mph - N/A Rain Light Rain
11:12 AM 62.6 °F 55.4 °F 77% 30.21 in 10.0 mi SE 4.6 mph - N/A   Scattered Clouds
11:20 AM 62.6 °F 55.4 °F 77% 30.20 in 10.0 mi ESE 4.6 mph - N/A Rain Light Rain
12:31 PM 62.6 °F 59.0 °F 88% 30.19 in 10.0 mi ESE 2.3 mph - N/A Rain Light Rain
12:58 PM 62.8 °F 60.3 °F 91% 30.19 in 9.0 mi SE 6.9 mph - 0.03 in Rain Light Rain
1:58 PM 62.6 °F 61.9 °F 97% 30.16 in 9.0 mi ESE 6.9 mph - 0.04 in Rain Light Rain
2:23 PM 62.6 °F 62.6 °F 100% 30.14 in 10.0 mi SSE 8.1 mph - N/A Rain Light Rain
2:24 PM 62.6 °F 62.6 °F 100% 30.14 in 10.0 mi SSE 8.1 mph - N/A Rain Light Rain
2:58 PM 62.6 °F 62.6 °F 100% 30.15 in 9.0 mi SSE 13.8 mph - N/A Rain Light Rain
3:18 PM 62.6 °F 60.8 °F 94% 30.14 in 9.0 mi SSE 10.4 mph 18.4 mph N/A Rain Light Rain
3:58 PM 61.7 °F 61.0 °F 97% 30.15 in 10.0 mi South 5.8 mph - 0.03 in Rain Light Rain
4:19 PM 62.6 °F 62.6 °F 100% 30.15 in 10.0 mi Variable 3.5 mph - N/A   Overcast
4:55 PM 63.0 °F 62.6 °F 99% 30.14 in 10.0 mi SE 3.5 mph - 0.00 in   Overcast
5:55 PM 63.7 °F 62.8 °F 97% 30.14 in 10.0 mi Calm Calm - N/A   Overcast
6:06 PM 64.4 °F 62.6 °F 94% 30.13 in 10.0 mi SE 3.5 mph - N/A   Overcast
6:12 PM 64.4 °F 62.6 °F 94% 30.13 in 10.0 mi SSE 3.5 mph - N/A   Overcast
6:19 PM 64.4 °F 62.6 °F 94% 30.12 in 10.0 mi SSE 4.6 mph - N/A   Overcast
6:34 PM 64.4 °F 62.6 °F 94% 30.12 in 10.0 mi South 3.5 mph - N/A   Overcast
6:41 PM 62.6 °F 62.6 °F 100% 30.12 in 8.0 mi Calm Calm - N/A Rain Light Rain
6:52 PM 62.6 °F 62.6 °F 100% 30.13 in 3.0 mi SSE 3.5 mph - N/A Rain Light Rain
6:55 PM 63.3 °F 63.0 °F 99% 30.15 in 4.0 mi Calm Calm - 0.01 in Rain Light Rain
6:56 PM 62.6 °F 62.6 °F 100% 30.13 in 4.0 mi Calm Calm - N/A Rain Light Rain
7:11 PM 62.6 °F 62.6 °F 100% 30.13 in 10.0 mi Calm Calm - N/A Rain Light Rain
7:26 PM 62.6 °F 62.6 °F 100% 30.12 in 9.0 mi Variable 3.5 mph - N/A   Overcast
7:55 PM 62.8 °F 62.4 °F 99% 30.12 in 9.0 mi Calm Calm - 0.01 in   Overcast
7:56 PM 62.6 °F 62.6 °F 100% 30.12 in 9.0 mi Calm Calm - N/A   Overcast
8:30 PM 62.6 °F 62.6 °F 100% 30.11 in 9.0 mi SE 3.5 mph - N/A   Overcast
8:55 PM 62.6 °F 62.6 °F 100% 30.12 in 7.0 mi SE 3.5 mph - N/A Rain Light Rain
9:20 PM 62.6 °F 60.8 °F 94% 30.11 in 9.0 mi SE 3.5 mph - N/A   Mostly Cloudy
9:55 PM 60.8 °F 60.8 °F 100% 30.12 in 6.0 mi ENE 5.8 mph - N/A   Overcast
10:07 PM 60.8 °F 60.8 °F 100% 30.11 in 7.0 mi East 4.6 mph - N/A   Overcast
10:13 PM 60.8 °F 60.8 °F 100% 30.12 in 8.0 mi Variable 4.6 mph - N/A   Overcast
10:44 PM 60.8 °F 60.8 °F 100% 30.12 in 10.0 mi NE 3.5 mph - N/A Rain Light Rain
10:56 PM 60.8 °F 60.8 °F 100% 30.12 in 10.0 mi East 3.5 mph - N/A Rain Light Rain
11:01 PM 60.8 °F 60.8 °F 100% 30.11 in 10.0 mi East 3.5 mph - N/A   Overcast
11:13 PM 60.8 °F 60.8 °F 100% 30.11 in 10.0 mi Variable 3.5 mph - N/A Rain Light Rain
11:35 PM 60.8 °F 60.8 °F 100% 30.10 in 10.0 mi East 3.5 mph - N/A   Overcast
11:58 PM 60.6 °F 60.3 °F 99% 30.11 in 10.0 mi SE 2.3 mph - 0.01 in   Overcast